This is the latest recevied weather packets stored in our database for station/object AJ7DN. If no packets are shown the sender has not sent any weather packets the latest 10 day(s).
| Time | Temp. | Humidity | Pressure | Rain* | Wind** | Luminosity | Snow |
|---|---|---|---|---|---|---|---|
| 1778036143 | 17.78° C | 73% | 1019.7 hPa | 0 mm | - | 10 W/m² | - |
| 1778035838 | 17.78° C | 72% | 1019.6 hPa | 0 mm | - | 12 W/m² | - |
| 1778035536 | 17.78° C | 71% | 1019.4 hPa | 0 mm | - | 15 W/m² | - |
| 1778035232 | 17.78° C | 72% | 1019.5 hPa | 0 mm | - | 17 W/m² | - |
| 1778034928 | 17.78° C | 71% | 1019.6 hPa | 0 mm | - | 19 W/m² | - |
| 1778034626 | 18.33° C | 71% | 1019.5 hPa | 0 mm | - | 20 W/m² | - |
| 1778034323 | 18.33° C | 71% | 1019.5 hPa | 0 mm | - | 26 W/m² | - |
| 1778034021 | 17.78° C | 70% | 1019.8 hPa | 0 mm | - | 31 W/m² | - |
| 1778033718 | 18.33° C | 71% | 1019.9 hPa | 0 mm | - | 34 W/m² | - |
| 1778033415 | 18.33° C | 69% | 1019.6 hPa | 0 mm | - | 30 W/m² | - |
| 1778033113 | 18.33° C | 70% | 1019.5 hPa | 0 mm | - | 26 W/m² | - |
| 1778032810 | 18.33° C | 69% | 1019.5 hPa | 0 mm | - | 25 W/m² | - |
| 1778032507 | 18.33° C | 68% | 1019.4 hPa | 0 mm | - | 26 W/m² | - |
| 1778032204 | 18.33° C | 68% | 1019.5 hPa | 0 mm | - | 29 W/m² | - |
| 1778031901 | 18.33° C | 69% | 1019.5 hPa | 0 mm | - | 36 W/m² | - |
| 1778031597 | 18.89° C | 68% | 1019.5 hPa | 0 mm | - | 40 W/m² | - |
| 1778031295 | 18.89° C | 67% | 1019.5 hPa | 0 mm | - | 39 W/m² | - |
| 1778030991 | 18.89° C | 67% | 1019.4 hPa | 0 mm | - | 41 W/m² | - |
| 1778030688 | 18.89° C | 67% | 1019.8 hPa | 0 mm | - | 46 W/m² | - |
| 1778030385 | 18.89° C | 68% | 1019.5 hPa | 0 mm | - | 49 W/m² | - |
| 1778030082 | 18.89° C | 67% | 1019.7 hPa | 0 mm | - | 52 W/m² | - |
| 1778029779 | 18.89° C | 68% | 1019.4 hPa | 0 mm | - | 58 W/m² | - |
| 1778029478 | 18.89° C | 67% | 1019.5 hPa | 0 mm | - | 54 W/m² | - |
| 1778029173 | 18.89° C | 67% | 1019.5 hPa | 0 mm | - | 55 W/m² | - |
| 1778028872 | 19.44° C | 65% | 1019.7 hPa | 0 mm | - | 70 W/m² | - |
* Rain latest hour (hover to see other rain measurements)
** Current wind speed in m/s (hover to see current wind gust speed)